Location: Colonia Mina de C?rbuni
(46.1667°N, 22.7167°E)
Time: 05:36:19
(UTC+00:00)

Courier 1B - Pass Details

Date: 24 April 2024
Orbit: 962 x 1208 km, 28.3° (Epoch: 26 May)

Event Time Altitude Azimuth Distance (km) Brightness Sun altitude
Rises 22:13:50 0° 216° (SW) 4,090 - -30.5°
Reaches altitude 10° 22:18:18 10° 194° (SSW) 3,103 - -30.5°
Maximum altitude 22:22:02 14° 164° (SSE) 2,760 - -30.6°
Drops below altitude 10° 22:25:43 10° 135° (SE) 3,039 - -30.6°
Sets 22:30:01 0° 112° (ESE) 3,949 - -30.6°
